SCP
-0 0 -0 0 0 0 0 0 0 0 0 0 0 0 0 0 0 0 0 0 0 0 0 0 0 0 0 0 -0 0 -0 -0 0 -0 -0 -0 -0 -0 0 0 0 0 0 0 0 0 0 0 0 0 0 0 0 0
0 -0 -0 0 0 0 0 0 0 0 0 0 0 0 0 0 0 0 0 0 0 0 0 0 0 0 0 0 0 0 0 0 0 -0 -0 -0 -0 -0 0 0 0 0 0 0 0 0 0 0 0 0 0 0 0 0
-0 -0 -0 0 0 0 0 0 0 0 0 0 0 0 0 0 0 0 0 0 0 0 0 0 0 0 0 0 0 -0 -0 0 0 0 0 -0 -0 0 0 0 0 0 0 0 0 0 0 0 0 0 0 0 -0 -0
-0 -0 -0 0 0 0 0 0 0 0 0 0 0 0 0 0 0 0 0 0 0 0 0 0 0 0 0 0 0 0 0 0 0 0 0 0 0 0 0 0 0 0 0 0 0 0 0 0 0 -0 -0 -0 -0 0
-0 -0 0 0 0 0 0 0 0 0 0 0 0 0 0 0 0 0 0 0 0 0 0 0 0 0 0 0 -0 0 0 0 0 0 0 0 0 0 0 0 0 0 0 0 0 0 0 -0 -0 -0 -0 -0 0 0
-0 0 0 0 0 0 0 0 0 0 0 0 0 0 0 0 0 0 0 0 0 0 0 0 0 0 0 0 -0 0 0 0 0 0 0 0 0 0 0 0 0 0 0 0 0 0 0 -0 -0 -0 -0 0 0 0
0 0 0 0 0 0 0 0 0 0 0 0 0 0 0 0 0 0 0 0 0 0 0 0 0 0 0 0 0 0 0 0 0 0 0 0 0 -0 -0 0 -0 0 0 0 0 0 0 0 0 0 0 0 0 0
0 0 0 0 0 0 0 0 0 0 0 0 0 0 0 0 0 0 0 0 0 0 0 0 0 0 0 0 0 0 0 0 0 0 0 0 0 0 0 0 0 0 0 0 0 0 -0 0 0 -0 0 0 -0 0
0 0 0 0 0 0 0 0 0 0 0 0 0 0 0 0 0 0 0 0 0 0 0 0 0 0 0 0 0 0 0 0 0 0 0 -0 0 -0 -0 0 0 0 0 0 -0 -0 -0 -0 -0 -0 -0 0 0 0
0 0 0 0 0 0 0 0 0 0 0 0 0 0 0 0 0 0 0 0 0 0 0 0 0 0 0 0 0 0 0 -0 -0 -0 -0 -0 -0 0 -0 0 -0 -0 -0 0 0 0 -0 0 0 -0 0 0 0 0
0 0 0 0 0 0 0 0 0 0 0 0 0 0 0 0 0 0 0 0 0 0 0 0 0 0 0 0 0 0 0 -0 -0 -0 -0 -0 -0 0 -0 0 0 0 -0 0 0 -0 -0 0 0 0 0 0 0 0
0 0 0 0 0 0 0 0 0 0 0 0 0 0 0 0 0 0 0 0 0 0 0 0 0 0 0 0 0 0 0 0 -0 0 -0 -0 -0 0 0 0 0 0 -0 -0 -0 0 0 0 0 0 0 0 0 0
0 0 0 0 0 0 0 0 0 0 0 0 0 0 0 0 0 0 0 0 0 0 0 0 0 0 0 0 0 0 0 0 0 -0 -0 -0 0 0 0 0 0 0 -0 -0 -0 0 0 0 0 0 0 0 0 0
0 0 0 0 0 0 0 0 0 0 0 0 0 0 0 0 0 0 0 0 0 0 0 0 0 0 0 0 0 0 0 0 0 -0 -0 -0 -0 -0 -0 -0 -0 -0 -0 -0 -0 -0 0 0 0 0 0 0 0 0
0 0 0 0 0 0 0 0 0 0 0 0 0 0 0 0 0 0 0 0 0 0 0 0 0 0 0 0 0 0 0 0 -0 -0 -0 -0 -0 -0 -0 -0 -0 -0 -0 0 0 0 0 0 0 0 0 0 -0 -0
0 0 0 0 0 0 0 0 0 0 0 0 0 0 0 0 0 0 0 0 0 0 0 0 0 0 0 0 0 0 0 0 0 0 0 -0 -0 -0 -0 -0 -0 0 0 0 0 0 0 0 0 0 0 0 -0 -0
0 0 0 0 0 0 0 0 0 0 0 0 0 0 0 0 0 0 0 0 0 0 0 0 0 0 0 0 0 0 0 0 0 0 0 -0 -0 -0 0 0 0 0 0 0 0 0 0 0 0 0 0 0 0 0
0 0 0 0 0 0 0 0 0 0 0 0 0 0 0 0 0 0 0 0 0 0 0 0 0 0 0 0 0 0 0 0 0 0 0 -0 0 0 0 0 0 0 0 0 0 0 0 0 0 0 0 -0 0 0
0 0 0 0 0 0 0 0 0 0 0 0 0 0 0 0 0 0 0 0 0 0 0 0 0 0 0 0 0 0 0 0 0 0 0 0 0 0 0 0 0 0 0 0 0 0 0 0 0 -0 -0 -0 -0 -0
0 0 0 0 0 0 0 0 0 0 0 0 0 0 0 0 0 0 0 0 0 0 0 0 0 0 0 0 0 0 0 -0 -0 -0 0 0 0 0 0 0 0 0 0 0 0 0 0 0 0 -0 -0 -0 -0 -0
0 0 0 0 0 0 0 0 0 0 0 0 0 0 0 0 0 0 0 0 0 0 0 0 0 0 0 0 0 0 0 0 0 0 0 0 0 0 0 0 0 0 0 0 -0 -0 0 -0 -0 -0 -0 -0 -0 -0
0 0 0 0 0 0 0 0 0 0 0 0 0 0 0 0 0 0 0 0 0 0 0 0 0 0 0 0 0 0 0 0 0 0 0 0 0 0 0 0 0 0 -0 -0 0 -0 -0 -0 -0 -0 -0 -0 -0 -0
0 0 0 0 0 0 0 0 0 0 0 0 0 0 0 0 0 0 0 0 0 0 0 0 0 0 0 0 0 0 0 0 0 0 0 0 0 0 0 -0 -0 -0 -0 -0 -0 -0 -0 -0 0 0 -0 -0 -0 -0
0 0 0 0 0 0 0 0 0 0 0 0 0 0 0 0 0 0 0 0 0 0 0 0 0 0 0 0 0 0 0 0 0 0 0 0 0 -0 -0 -0 -0 -0 0 -0 -0 -0 -0 -0 -0 0 0 0 0 0
0 0 0 0 0 0 0 0 0 0 0 0 0 0 0 0 0 0 0 0 0 0 0 0 0 0 0 0 0 0 0 0 0 0 -0 0 0 -0 -0 -0 -0 -0 -0 0 -0 -0 0 0 0 -0 0 0 0 0
0 0 0 0 0 0 0 0 0 0 0 0 0 0 0 0 0 0 0 0 0 0 0 0 0 0 0 0 0 0 0 0 0 0 -0 -0 -0 -0 -0 -0 -0 -0 -0 -0 0 0 0 0 0 0 0 0 0 0
0 0 0 0 0 0 0 0 0 0 0 0 0 0 0 0 0 0 0 0 0 0 0 0 0 0 0 0 0 0 0 0 0 -0 -0 -0 -0 -0 -0 -0 -0 -0 -0 -0 0 0 0 0 0 0 0 0 0 0
0 0 0 0 0 0 0 0 0 0 0 0 0 0 0 0 0 0 0 0 0 0 0 0 0 0 0 0 0 0 0 0 0 0 0 -0 -0 -0 -0 -0 -0 0 0 0 0 0 0 0 0 -0 -0 0 0 0
0 0 0 0 0 0 0 0 0 0 0 0 0 0 0 0 0 0 0 0 0 0 0 0 0 0 0 0 0 0 0 0 0 0 0 -0 -0 -0 -0 -0 0 0 0 0 -0 -0 -0 -0 -0 -0 -0 0 0 0
0 0 0 0 0 0 0 0 0 0 0 0 0 0 0 0 0 0 0 0 0 0 0 0 0 0 0 0 0 0 0 0 0 0 -0 0 0 -0 -0 0 0 0 0 -0 -0 -0 0 0 -0 -0 0 0 0 0
0 0 0 0 0 0 0 0 0 0 0 0 0 0 0 0 0 0 0 0 0 0 0 0 0 0 0 0 0 0 -0 -0 -0 -0 -0 -0 -0 -0 0 0 -0 -0 -0 -0 0 0 0 0 0 0 0 0 0 0
0 0 0 0 0 0 0 0 0 0 0 0 0 0 0 0 0 0 0 0 0 0 0 0 0 0 0 0 0 0 0 0 -0 -0 -0 -0 -0 -0 0 0 0 0 0 0 0 0 0 0 0 0 0 0 0 0
0 0 0 0 0 0 0 0 0 0 0 0 0 0 0 0 0 0 0 0 0 0 0 0 0 0 0 0 0 0 0 0 0 0 0 0 0 0 0 0 0 0 0 0 0 0 0 0 0 0 0 0 0 0
Wind_Speed_500mb
45 46 44 46 50 53 57 55 44 61 64 63 56 47 43 40 33 35 25 20 13 18 17 17 16 17 19 17 10 23 10 1 6 9 6 2 5 2 7 7 5 7 4 5 4 7 3 0 6 4 7 11 22 30
47 45 49 52 55 58 65 56 57 64 70 66 57 48 46 37 33 31 20 28 44 21 36 31 23 15 13 18 31 22 4 8 10 9 5 7 7 6 4 4 5 3 3 2 3 4 3 3 7 3 7 22 35 41
49 49 52 57 59 67 65 55 64 73 74 67 56 51 47 44 44 34 45 52 60 67 44 31 28 22 22 26 34 14 8 7 22 38 16 6 11 2 4 4 1 7 8 3 4 3 7 4 4 13 22 31 35 36
53 55 60 63 68 69 63 61 73 76 75 66 57 54 52 54 48 64 72 52 42 35 13 23 28 28 15 9 16 14 35 56 52 39 19 7 7 5 3 5 3 2 8 5 4 8 7 4 17 27 25 19 19 14
59 64 67 74 77 68 64 74 84 83 77 64 60 59 65 59 73 64 35 35 27 16 17 29 41 35 27 25 38 45 49 54 40 17 15 5 11 12 4 4 5 8 3 3 3 2 8 18 30 30 7 12 14 12
62 70 77 81 71 66 73 85 91 86 74 64 65 68 73 68 64 50 17 11 32 62 35 7 20 37 29 28 36 38 39 34 33 19 13 11 9 7 6 3 3 2 1 2 3 10 17 23 35 29 31 29 27 23
71 79 79 67 65 78 89 94 92 82 69 70 69 80 71 75 64 23 8 54 55 42 24 13 9 17 44 51 56 52 48 35 28 15 11 9 7 8 5 2 6 5 8 16 16 9 20 34 28 32 32 28 23 21
72 70 59 66 86 94 98 96 86 74 74 74 85 79 80 68 42 7 62 64 30 24 18 9 4 11 29 25 12 12 11 15 20 13 9 8 6 6 5 12 11 11 14 17 18 17 13 10 9 17 17 13 13 20
61 49 68 86 93 104 98 88 79 81 80 88 86 86 64 34 16 66 58 28 15 10 15 10 10 9 26 11 11 7 8 8 8 9 5 7 4 1 10 29 15 9 7 11 7 9 5 8 10 9 7 11 15 20
50 59 82 95 103 103 90 84 87 89 95 96 88 52 21 31 70 56 19 10 5 8 9 10 13 8 38 15 6 8 8 5 5 2 14 6 2 4 26 26 19 16 11 12 9 5 8 11 13 14 15 14 14 14
65 73 73 96 100 92 92 96 97 104 104 99 37 16 53 83 62 16 12 7 7 7 9 12 34 18 31 8 7 4 7 4 6 7 7 1 2 15 30 26 21 19 16 12 9 10 14 17 20 22 23 22 20 19
70 84 92 93 95 100 102 104 118 119 86 63 35 67 78 30 12 10 1 3 4 11 11 30 42 32 15 10 10 4 6 4 5 21 7 4 8 44 40 32 29 31 18 19 16 19 24 28 29 32 33 33 33 29
80 86 93 98 101 103 107 125 109 96 82 75 58 25 18 8 9 14 13 2 7 20 27 59 25 16 11 9 13 8 7 3 24 5 7 8 44 55 47 40 37 32 28 37 40 44 43 43 41 41 39 34 35 39
81 87 91 98 104 120 133 112 99 88 77 19 14 8 10 7 11 10 10 12 20 50 76 63 19 9 10 8 8 8 2 11 5 3 10 14 67 64 55 46 44 42 34 35 35 33 31 28 32 33 34 32 30 34
80 86 95 105 132 135 112 102 83 70 16 8 9 10 9 6 6 22 43 45 56 94 78 38 18 11 7 8 4 8 7 7 11 9 7 59 73 67 63 54 50 42 33 27 22 20 24 29 30 32 34 36 37 35
90 99 124 140 136 101 96 85 57 24 9 6 7 9 17 24 13 34 57 69 88 85 51 13 10 8 4 9 7 9 15 12 8 10 44 82 77 71 64 55 49 41 34 27 26 24 20 17 21 21 23 25 27 26
107 125 130 122 87 82 76 61 25 12 8 6 8 19 17 32 25 44 65 77 87 50 7 11 8 5 14 6 6 8 10 6 28 49 79 82 80 71 60 54 50 44 40 36 29 23 19 17 14 15 14 15 21 25
101 136 126 93 87 74 56 26 13 10 11 15 13 20 22 37 62 67 69 78 47 12 10 7 16 7 11 14 7 9 12 39 54 78 81 77 72 64 58 52 46 43 40 36 30 25 24 22 16 11 7 10 16 17
137 130 100 82 76 50 15 12 11 12 18 16 27 41 50 60 58 61 49 43 23 21 25 8 8 5 7 10 20 41 59 68 81 75 72 73 67 62 53 49 43 39 38 33 32 33 23 14 9 7 4 4 10 10
139 102 76 67 56 15 13 12 13 15 11 11 38 35 41 38 51 40 43 37 28 7 8 4 6 6 9 21 48 66 71 83 88 88 75 71 62 53 48 46 46 44 41 36 31 24 16 11 9 6 3 3 7 11
113 83 57 36 34 23 16 11 14 16 16 16 39 39 24 42 39 37 24 16 8 6 3 3 10 16 28 44 56 63 78 84 88 91 94 77 58 51 49 45 50 44 42 36 33 25 15 13 11 8 6 7 11 14
73 63 53 34 17 15 17 15 17 17 13 14 20 17 17 13 14 12 11 11 5 3 7 20 34 46 51 55 58 64 78 76 73 76 70 64 64 56 51 50 52 49 42 35 33 24 14 12 11 10 8 10 13 15
56 47 22 15 16 14 9 13 11 10 9 7 8 9 9 7 6 9 8 3 2 12 30 36 41 43 50 54 57 65 62 62 70 68 62 58 54 50 48 47 51 53 45 42 29 17 16 16 15 9 8 13 12 12
44 13 13 12 15 9 11 8 9 10 11 9 7 6 4 7 7 8 2 3 16 35 42 44 48 56 53 53 60 61 61 55 62 60 56 55 56 53 52 52 48 42 36 36 29 21 18 20 16 10 7 6 7 7
12 16 12 15 11 11 9 6 6 10 6 4 7 3 5 8 5 2 5 9 44 48 50 50 52 56 65 63 60 59 56 56 62 61 56 50 49 51 52 44 42 39 38 35 32 27 25 22 16 11 8 5 3 2
15 17 7 7 6 9 8 8 8 9 8 6 5 14 8 7 5 9 10 37 66 66 66 66 67 66 62 60 66 64 62 53 51 57 58 52 48 62 62 57 54 48 38 31 31 29 26 21 17 15 11 5 3 5
9 3 9 10 14 21 15 15 12 13 8 10 10 9 7 7 11 11 16 44 77 73 65 62 59 57 61 64 58 55 56 54 49 45 46 46 41 45 53 55 54 41 38 33 27 26 24 21 18 16 10 6 8 9
10 8 11 14 11 9 12 9 7 8 8 16 27 8 18 17 11 7 11 39 71 66 61 58 52 46 50 51 52 55 56 54 48 43 43 42 39 37 37 29 28 34 37 33 28 26 25 22 19 17 13 10 12 14
7 19 13 11 10 11 7 6 9 9 19 34 12 7 12 10 11 13 13 43 65 63 67 67 62 51 47 55 56 55 59 64 68 64 63 61 57 51 45 43 40 38 36 35 33 32 29 25 22 19 17 17 18 20
7 9 11 6 7 5 4 6 10 23 22 24 10 10 11 14 17 18 20 48 66 69 68 68 67 64 66 70 67 64 60 62 61 62 70 71 64 55 54 53 48 44 39 38 38 36 32 27 24 24 23 22 24 26
13 8 11 10 7 5 10 18 22 24 25 17 11 10 9 11 16 20 24 44 53 58 64 70 67 65 68 73 74 73 71 67 60 51 42 40 44 51 50 49 47 45 41 40 39 35 32 31 29 27 27 29 30 32
7 7 11 7 6 13 18 9 8 7 9 9 7 7 7 5 9 13 27 45 56 61 69 69 73 75 70 67 66 63 57 55 56 54 52 47 42 39 43 43 42 43 42 40 38 37 35 32 30 30 31 32 33 35
10 13 14 13 9 6 9 10 6 5 7 7 7 11 9 7 9 12 17 46 59 62 67 68 63 61 62 57 54 51 48 44 42 41 48 49 48 44 45 49 48 45 43 42 40 38 35 35 34 34 34 33 34 37
Wind_Direction_500mb
243 250 252 257 259 266 279 270 246 215 203 202 207 209 201 201 203 212 223 213 171 111 103 122 121 146 142 140 134 154 94 270 67 66 105 167 95 61 81 21 19 44 50 43 31 84 263 23 101 79 224 302 298 317
245 251 254 257 263 272 279 267 231 209 202 200 204 206 195 187 187 200 203 167 135 110 110 100 101 117 165 144 145 151 151 159 131 93 72 111 69 52 133 84 7 65 355 34 65 165 239 154 119 105 270 281 306 312
251 255 259 264 270 279 269 254 219 203 196 196 202 197 185 173 176 177 147 144 127 105 84 92 75 88 109 134 156 129 167 119 114 111 116 121 80 90 67 65 25 8 10 73 43 317 346 344 325 318 307 305 303 311
256 259 265 268 275 270 255 225 206 196 191 194 196 187 172 166 170 154 143 146 141 109 90 61 83 77 92 148 182 186 140 126 118 109 81 87 110 56 68 103 82 303 344 342 35 10 34 34 345 322 309 295 286 10
263 267 271 273 271 257 233 205 196 188 189 190 186 175 164 165 160 153 145 148 142 124 124 101 95 92 98 109 121 129 134 129 107 77 73 90 117 116 79 101 26 358 32 81 118 327 299 322 348 360 34 81 88 102
267 273 273 269 255 229 207 190 187 185 186 182 176 167 163 165 155 142 125 112 129 133 117 77 76 99 106 132 137 134 136 108 106 90 90 94 87 114 94 98 223 66 74 207 263 338 9 20 33 74 100 100 103 89
272 273 270 248 221 199 183 181 179 181 179 175 168 162 162 158 152 163 182 152 135 116 100 94 90 111 107 112 104 100 99 88 81 88 61 98 90 84 98 149 159 90 64 74 64 82 45 49 48 86 105 105 100 85
277 274 240 204 182 174 176 174 175 175 172 166 161 160 157 159 171 260 146 144 144 104 93 105 115 131 139 119 98 75 88 69 51 90 98 84 54 52 105 175 155 117 100 90 65 46 61 64 73 78 91 95 68 59
278 216 181 173 171 172 170 170 171 169 162 158 156 158 154 157 186 145 142 131 96 88 110 112 134 182 171 140 113 97 78 55 87 85 90 107 330 125 177 159 154 138 122 90 84 30 34 36 42 49 61 71 67 57
195 183 171 166 171 165 167 167 165 160 155 151 149 143 132 164 152 142 149 167 118 84 95 100 136 134 161 154 118 117 78 134 86 221 130 74 229 200 151 142 133 128 136 150 136 62 54 68 53 54 61 61 49 43
176 179 177 167 164 165 163 162 159 152 149 149 151 140 143 148 150 177 154 148 132 74 113 128 138 128 158 122 138 108 151 133 98 208 117 196 222 186 154 135 127 138 142 125 133 108 77 73 71 71 71 66 63 61
175 168 164 165 164 162 162 158 152 152 153 152 144 134 136 159 181 97 303 133 113 171 136 143 139 130 132 128 106 111 105 84 147 153 90 178 218 170 156 138 126 132 123 108 111 101 93 85 80 78 77 74 70 68
156 161 162 162 161 160 157 150 149 148 146 134 122 151 159 173 42 157 174 222 127 167 146 146 133 134 122 106 88 93 80 161 130 58 212 216 163 167 163 148 136 137 120 111 105 100 92 87 81 75 78 79 77 76
155 158 159 159 157 154 148 147 150 153 145 144 140 115 164 207 232 191 165 154 141 144 145 142 114 124 117 84 125 93 149 125 85 161 229 178 168 169 167 157 149 145 133 122 110 96 88 90 89 84 77 75 75 74
152 155 155 154 148 145 147 155 161 157 152 101 125 155 187 162 114 137 124 122 132 143 143 123 90 99 73 104 84 116 132 202 202 223 204 164 165 163 161 158 154 149 149 141 130 120 110 102 101 90 79 74 70 68
147 147 148 147 146 150 158 160 154 149 77 83 90 95 121 103 105 120 124 129 141 144 142 117 110 87 113 129 136 184 152 212 226 188 156 160 160 159 160 161 158 158 158 151 143 137 135 120 113 101 87 71 55 40
142 145 146 145 147 149 149 150 134 68 73 57 50 114 117 115 124 130 141 141 148 150 117 122 98 143 121 94 175 185 195 216 148 144 155 159 158 157 157 156 159 158 158 154 149 145 141 142 131 138 98 64 32 28
149 147 148 145 143 139 138 125 90 81 79 61 90 103 101 128 132 136 143 150 154 119 133 141 127 129 158 167 212 189 129 136 146 150 155 157 155 156 158 159 161 164 159 164 162 149 144 139 131 114 93 68 23 15
148 146 148 146 144 132 85 66 68 84 56 69 95 105 114 122 129 134 137 151 148 116 119 99 98 161 199 184 154 150 148 149 147 150 153 155 157 157 161 161 160 160 156 156 160 151 144 137 120 122 144 321 337 3
149 149 146 144 151 93 86 71 65 83 61 70 107 103 116 120 127 119 132 135 128 93 68 72 186 186 167 163 162 155 153 153 149 146 152 157 160 164 167 166 163 160 154 148 151 159 169 168 145 139 138 3 11 46
153 152 157 153 96 75 86 77 74 90 83 94 99 103 92 107 113 113 85 100 87 49 68 107 134 135 135 146 152 154 156 158 158 155 156 159 166 166 159 158 162 159 160 161 165 162 157 151 132 112 90 76 77 72
138 145 142 125 81 74 68 59 98 99 81 98 87 77 71 65 59 51 66 59 68 97 141 146 137 138 142 148 152 157 159 163 161 157 158 158 159 162 165 168 170 169 170 171 175 167 161 156 142 131 112 92 79 68
136 132 92 75 87 73 85 53 73 57 97 103 84 72 50 67 75 82 69 77 139 166 153 144 142 145 145 149 155 161 165 163 161 162 163 163 159 156 156 160 169 168 165 168 174 178 176 169 160 142 101 83 78 72
142 81 65 66 71 101 98 69 83 97 90 65 73 90 90 107 86 68 90 233 168 163 161 156 155 152 152 156 161 164 167 169 164 165 165 162 162 161 162 163 169 176 174 174 179 188 183 176 168 151 119 102 87 66
103 29 66 56 78 96 82 49 66 69 97 108 93 73 137 120 76 103 220 207 175 174 173 169 169 167 160 162 165 167 172 172 169 168 168 167 163 166 170 172 170 178 182 188 191 191 188 186 178 171 176 163 122 49
70 23 61 114 113 106 151 116 147 143 116 90 109 134 136 109 121 228 219 191 182 182 182 181 177 173 171 168 167 171 173 176 174 173 172 171 173 174 174 174 176 181 190 195 193 191 192 189 189 200 205 205 248 331
93 11 69 83 107 116 98 81 108 103 115 149 162 150 114 145 223 235 208 188 187 189 192 191 189 185 176 174 172 167 167 171 176 173 167 172 183 184 186 185 187 184 186 184 192 199 201 202 208 219 229 263 299 328
90 121 132 132 105 98 118 115 141 165 163 156 148 161 168 189 214 179 187 189 192 191 188 190 193 190 184 179 178 176 179 183 186 179 176 181 187 193 198 201 205 201 195 197 203 209 207 211 221 236 248 272 298 312
81 122 110 54 81 71 64 119 160 148 149 169 150 175 191 177 173 171 174 179 188 188 185 185 187 188 186 184 184 184 182 183 185 185 190 191 191 193 194 194 190 190 195 201 204 209 210 213 224 239 256 271 287 300
114 125 103 75 76 75 78 114 128 145 147 156 126 128 147 168 179 181 177 180 186 190 190 188 186 187 188 186 185 189 197 201 201 198 193 197 197 189 187 188 195 203 207 209 209 209 212 221 233 246 261 275 287 294
125 108 86 70 80 90 121 125 125 130 147 149 134 139 148 171 188 191 188 187 190 190 192 191 192 193 193 195 198 197 199 203 205 209 213 208 200 199 198 198 201 206 208 209 211 212 218 229 240 253 266 277 285 290
86 80 120 107 107 127 126 118 107 107 124 147 141 132 157 178 200 192 196 190 189 197 201 199 199 198 198 202 203 205 205 200 201 205 210 211 210 207 204 205 205 205 206 208 210 216 225 236 247 258 268 276 283 288
100 95 95 102 120 144 121 117 105 86 109 129 146 179 197 205 241 213 208 201 202 202 203 206 207 206 203 201 203 205 205 205 208 207 204 203 203 204 202 202 205 207 208 208 215 224 235 244 251 256 264 273 282 289
Wind_Speed_850mb
45 46 44 46 50 53 57 55 44 61 64 63 56 47 43 40 33 35 25 20 13 18 17 17 16 17 19 17 10 23 10 1 6 9 6 2 5 2 7 7 5 7 4 5 4 7 3 0 6 4 7 11 22 30
47 45 49 52 55 58 65 56 57 64 70 66 57 48 46 37 33 31 20 28 44 21 36 31 23 15 13 18 31 22 4 8 10 9 5 7 7 6 4 4 5 3 3 2 3 4 3 3 7 3 7 22 35 41
49 49 52 57 59 67 65 55 64 73 74 67 56 51 47 44 44 34 45 52 60 67 44 31 28 22 22 26 34 14 8 7 22 38 16 6 11 2 4 4 1 7 8 3 4 3 7 4 4 13 22 31 35 36
53 55 60 63 68 69 63 61 73 76 75 66 57 54 52 54 48 64 72 52 42 35 13 23 28 28 15 9 16 14 35 56 52 39 19 7 7 5 3 5 3 2 8 5 4 8 7 4 17 27 25 19 19 14
59 64 67 74 77 68 64 74 84 83 77 64 60 59 65 59 73 64 35 35 27 16 17 29 41 35 27 25 38 45 49 54 40 17 15 5 11 12 4 4 5 8 3 3 3 2 8 18 30 30 7 12 14 12
62 70 77 81 71 66 73 85 91 86 74 64 65 68 73 68 64 50 17 11 32 62 35 7 20 37 29 28 36 38 39 34 33 19 13 11 9 7 6 3 3 2 1 2 3 10 17 23 35 29 31 29 27 23
71 79 79 67 65 78 89 94 92 82 69 70 69 80 71 75 64 23 8 54 55 42 24 13 9 17 44 51 56 52 48 35 28 15 11 9 7 8 5 2 6 5 8 16 16 9 20 34 28 32 32 28 23 21
72 70 59 66 86 94 98 96 86 74 74 74 85 79 80 68 42 7 62 64 30 24 18 9 4 11 29 25 12 12 11 15 20 13 9 8 6 6 5 12 11 11 14 17 18 17 13 10 9 17 17 13 13 20
61 49 68 86 93 104 98 88 79 81 80 88 86 86 64 34 16 66 58 28 15 10 15 10 10 9 26 11 11 7 8 8 8 9 5 7 4 1 10 29 15 9 7 11 7 9 5 8 10 9 7 11 15 20
50 59 82 95 103 103 90 84 87 89 95 96 88 52 21 31 70 56 19 10 5 8 9 10 13 8 38 15 6 8 8 5 5 2 14 6 2 4 26 26 19 16 11 12 9 5 8 11 13 14 15 14 14 14
65 73 73 96 100 92 92 96 97 104 104 99 37 16 53 83 62 16 12 7 7 7 9 12 34 18 31 8 7 4 7 4 6 7 7 1 2 15 30 26 21 19 16 12 9 10 14 17 20 22 23 22 20 19
70 84 92 93 95 100 102 104 118 119 86 63 35 67 78 30 12 10 1 3 4 11 11 30 42 32 15 10 10 4 6 4 5 21 7 4 8 44 40 32 29 31 18 19 16 19 24 28 29 32 33 33 33 29
80 86 93 98 101 103 107 125 109 96 82 75 58 25 18 8 9 14 13 2 7 20 27 59 25 16 11 9 13 8 7 3 24 5 7 8 44 55 47 40 37 32 28 37 40 44 43 43 41 41 39 34 35 39
81 87 91 98 104 120 133 112 99 88 77 19 14 8 10 7 11 10 10 12 20 50 76 63 19 9 10 8 8 8 2 11 5 3 10 14 67 64 55 46 44 42 34 35 35 33 31 28 32 33 34 32 30 34
80 86 95 105 132 135 112 102 83 70 16 8 9 10 9 6 6 22 43 45 56 94 78 38 18 11 7 8 4 8 7 7 11 9 7 59 73 67 63 54 50 42 33 27 22 20 24 29 30 32 34 36 37 35
90 99 124 140 136 101 96 85 57 24 9 6 7 9 17 24 13 34 57 69 88 85 51 13 10 8 4 9 7 9 15 12 8 10 44 82 77 71 64 55 49 41 34 27 26 24 20 17 21 21 23 25 27 26
107 125 130 122 87 82 76 61 25 12 8 6 8 19 17 32 25 44 65 77 87 50 7 11 8 5 14 6 6 8 10 6 28 49 79 82 80 71 60 54 50 44 40 36 29 23 19 17 14 15 14 15 21 25
101 136 126 93 87 74 56 26 13 10 11 15 13 20 22 37 62 67 69 78 47 12 10 7 16 7 11 14 7 9 12 39 54 78 81 77 72 64 58 52 46 43 40 36 30 25 24 22 16 11 7 10 16 17
137 130 100 82 76 50 15 12 11 12 18 16 27 41 50 60 58 61 49 43 23 21 25 8 8 5 7 10 20 41 59 68 81 75 72 73 67 62 53 49 43 39 38 33 32 33 23 14 9 7 4 4 10 10
139 102 76 67 56 15 13 12 13 15 11 11 38 35 41 38 51 40 43 37 28 7 8 4 6 6 9 21 48 66 71 83 88 88 75 71 62 53 48 46 46 44 41 36 31 24 16 11 9 6 3 3 7 11
113 83 57 36 34 23 16 11 14 16 16 16 39 39 24 42 39 37 24 16 8 6 3 3 10 16 28 44 56 63 78 84 88 91 94 77 58 51 49 45 50 44 42 36 33 25 15 13 11 8 6 7 11 14
73 63 53 34 17 15 17 15 17 17 13 14 20 17 17 13 14 12 11 11 5 3 7 20 34 46 51 55 58 64 78 76 73 76 70 64 64 56 51 50 52 49 42 35 33 24 14 12 11 10 8 10 13 15
56 47 22 15 16 14 9 13 11 10 9 7 8 9 9 7 6 9 8 3 2 12 30 36 41 43 50 54 57 65 62 62 70 68 62 58 54 50 48 47 51 53 45 42 29 17 16 16 15 9 8 13 12 12
44 13 13 12 15 9 11 8 9 10 11 9 7 6 4 7 7 8 2 3 16 35 42 44 48 56 53 53 60 61 61 55 62 60 56 55 56 53 52 52 48 42 36 36 29 21 18 20 16 10 7 6 7 7
12 16 12 15 11 11 9 6 6 10 6 4 7 3 5 8 5 2 5 9 44 48 50 50 52 56 65 63 60 59 56 56 62 61 56 50 49 51 52 44 42 39 38 35 32 27 25 22 16 11 8 5 3 2
15 17 7 7 6 9 8 8 8 9 8 6 5 14 8 7 5 9 10 37 66 66 66 66 67 66 62 60 66 64 62 53 51 57 58 52 48 62 62 57 54 48 38 31 31 29 26 21 17 15 11 5 3 5
9 3 9 10 14 21 15 15 12 13 8 10 10 9 7 7 11 11 16 44 77 73 65 62 59 57 61 64 58 55 56 54 49 45 46 46 41 45 53 55 54 41 38 33 27 26 24 21 18 16 10 6 8 9
10 8 11 14 11 9 12 9 7 8 8 16 27 8 18 17 11 7 11 39 71 66 61 58 52 46 50 51 52 55 56 54 48 43 43 42 39 37 37 29 28 34 37 33 28 26 25 22 19 17 13 10 12 14
7 19 13 11 10 11 7 6 9 9 19 34 12 7 12 10 11 13 13 43 65 63 67 67 62 51 47 55 56 55 59 64 68 64 63 61 57 51 45 43 40 38 36 35 33 32 29 25 22 19 17 17 18 20
7 9 11 6 7 5 4 6 10 23 22 24 10 10 11 14 17 18 20 48 66 69 68 68 67 64 66 70 67 64 60 62 61 62 70 71 64 55 54 53 48 44 39 38 38 36 32 27 24 24 23 22 24 26
13 8 11 10 7 5 10 18 22 24 25 17 11 10 9 11 16 20 24 44 53 58 64 70 67 65 68 73 74 73 71 67 60 51 42 40 44 51 50 49 47 45 41 40 39 35 32 31 29 27 27 29 30 32
7 7 11 7 6 13 18 9 8 7 9 9 7 7 7 5 9 13 27 45 56 61 69 69 73 75 70 67 66 63 57 55 56 54 52 47 42 39 43 43 42 43 42 40 38 37 35 32 30 30 31 32 33 35
10 13 14 13 9 6 9 10 6 5 7 7 7 11 9 7 9 12 17 46 59 62 67 68 63 61 62 57 54 51 48 44 42 41 48 49 48 44 45 49 48 45 43 42 40 38 35 35 34 34 34 33 34 37
Wind_Direction_850mb
243 250 252 257 259 266 279 270 246 215 203 202 207 209 201 201 203 212 223 213 171 111 103 122 121 146 142 140 134 154 94 270 67 66 105 167 95 61 81 21 19 44 50 43 31 84 263 23 101 79 224 302 298 317
245 251 254 257 263 272 279 267 231 209 202 200 204 206 195 187 187 200 203 167 135 110 110 100 101 117 165 144 145 151 151 159 131 93 72 111 69 52 133 84 7 65 355 34 65 165 239 154 119 105 270 281 306 312
251 255 259 264 270 279 269 254 219 203 196 196 202 197 185 173 176 177 147 144 127 105 84 92 75 88 109 134 156 129 167 119 114 111 116 121 80 90 67 65 25 8 10 73 43 317 346 344 325 318 307 305 303 311
256 259 265 268 275 270 255 225 206 196 191 194 196 187 172 166 170 154 143 146 141 109 90 61 83 77 92 148 182 186 140 126 118 109 81 87 110 56 68 103 82 303 344 342 35 10 34 34 345 322 309 295 286 10
263 267 271 273 271 257 233 205 196 188 189 190 186 175 164 165 160 153 145 148 142 124 124 101 95 92 98 109 121 129 134 129 107 77 73 90 117 116 79 101 26 358 32 81 118 327 299 322 348 360 34 81 88 102
267 273 273 269 255 229 207 190 187 185 186 182 176 167 163 165 155 142 125 112 129 133 117 77 76 99 106 132 137 134 136 108 106 90 90 94 87 114 94 98 223 66 74 207 263 338 9 20 33 74 100 100 103 89
272 273 270 248 221 199 183 181 179 181 179 175 168 162 162 158 152 163 182 152 135 116 100 94 90 111 107 112 104 100 99 88 81 88 61 98 90 84 98 149 159 90 64 74 64 82 45 49 48 86 105 105 100 85
277 274 240 204 182 174 176 174 175 175 172 166 161 160 157 159 171 260 146 144 144 104 93 105 115 131 139 119 98 75 88 69 51 90 98 84 54 52 105 175 155 117 100 90 65 46 61 64 73 78 91 95 68 59
278 216 181 173 171 172 170 170 171 169 162 158 156 158 154 157 186 145 142 131 96 88 110 112 134 182 171 140 113 97 78 55 87 85 90 107 330 125 177 159 154 138 122 90 84 30 34 36 42 49 61 71 67 57
195 183 171 166 171 165 167 167 165 160 155 151 149 143 132 164 152 142 149 167 118 84 95 100 136 134 161 154 118 117 78 134 86 221 130 74 229 200 151 142 133 128 136 150 136 62 54 68 53 54 61 61 49 43
176 179 177 167 164 165 163 162 159 152 149 149 151 140 143 148 150 177 154 148 132 74 113 128 138 128 158 122 138 108 151 133 98 208 117 196 222 186 154 135 127 138 142 125 133 108 77 73 71 71 71 66 63 61
175 168 164 165 164 162 162 158 152 152 153 152 144 134 136 159 181 97 303 133 113 171 136 143 139 130 132 128 106 111 105 84 147 153 90 178 218 170 156 138 126 132 123 108 111 101 93 85 80 78 77 74 70 68
156 161 162 162 161 160 157 150 149 148 146 134 122 151 159 173 42 157 174 222 127 167 146 146 133 134 122 106 88 93 80 161 130 58 212 216 163 167 163 148 136 137 120 111 105 100 92 87 81 75 78 79 77 76
155 158 159 159 157 154 148 147 150 153 145 144 140 115 164 207 232 191 165 154 141 144 145 142 114 124 117 84 125 93 149 125 85 161 229 178 168 169 167 157 149 145 133 122 110 96 88 90 89 84 77 75 75 74
152 155 155 154 148 145 147 155 161 157 152 101 125 155 187 162 114 137 124 122 132 143 143 123 90 99 73 104 84 116 132 202 202 223 204 164 165 163 161 158 154 149 149 141 130 120 110 102 101 90 79 74 70 68
147 147 148 147 146 150 158 160 154 149 77 83 90 95 121 103 105 120 124 129 141 144 142 117 110 87 113 129 136 184 152 212 226 188 156 160 160 159 160 161 158 158 158 151 143 137 135 120 113 101 87 71 55 40
142 145 146 145 147 149 149 150 134 68 73 57 50 114 117 115 124 130 141 141 148 150 117 122 98 143 121 94 175 185 195 216 148 144 155 159 158 157 157 156 159 158 158 154 149 145 141 142 131 138 98 64 32 28
149 147 148 145 143 139 138 125 90 81 79 61 90 103 101 128 132 136 143 150 154 119 133 141 127 129 158 167 212 189 129 136 146 150 155 157 155 156 158 159 161 164 159 164 162 149 144 139 131 114 93 68 23 15
148 146 148 146 144 132 85 66 68 84 56 69 95 105 114 122 129 134 137 151 148 116 119 99 98 161 199 184 154 150 148 149 147 150 153 155 157 157 161 161 160 160 156 156 160 151 144 137 120 122 144 321 337 3
149 149 146 144 151 93 86 71 65 83 61 70 107 103 116 120 127 119 132 135 128 93 68 72 186 186 167 163 162 155 153 153 149 146 152 157 160 164 167 166 163 160 154 148 151 159 169 168 145 139 138 3 11 46
153 152 157 153 96 75 86 77 74 90 83 94 99 103 92 107 113 113 85 100 87 49 68 107 134 135 135 146 152 154 156 158 158 155 156 159 166 166 159 158 162 159 160 161 165 162 157 151 132 112 90 76 77 72
138 145 142 125 81 74 68 59 98 99 81 98 87 77 71 65 59 51 66 59 68 97 141 146 137 138 142 148 152 157 159 163 161 157 158 158 159 162 165 168 170 169 170 171 175 167 161 156 142 131 112 92 79 68
136 132 92 75 87 73 85 53 73 57 97 103 84 72 50 67 75 82 69 77 139 166 153 144 142 145 145 149 155 161 165 163 161 162 163 163 159 156 156 160 169 168 165 168 174 178 176 169 160 142 101 83 78 72
142 81 65 66 71 101 98 69 83 97 90 65 73 90 90 107 86 68 90 233 168 163 161 156 155 152 152 156 161 164 167 169 164 165 165 162 162 161 162 163 169 176 174 174 179 188 183 176 168 151 119 102 87 66
103 29 66 56 78 96 82 49 66 69 97 108 93 73 137 120 76 103 220 207 175 174 173 169 169 167 160 162 165 167 172 172 169 168 168 167 163 166 170 172 170 178 182 188 191 191 188 186 178 171 176 163 122 49
70 23 61 114 113 106 151 116 147 143 116 90 109 134 136 109 121 228 219 191 182 182 182 181 177 173 171 168 167 171 173 176 174 173 172 171 173 174 174 174 176 181 190 195 193 191 192 189 189 200 205 205 248 331
93 11 69 83 107 116 98 81 108 103 115 149 162 150 114 145 223 235 208 188 187 189 192 191 189 185 176 174 172 167 167 171 176 173 167 172 183 184 186 185 187 184 186 184 192 199 201 202 208 219 229 263 299 328
90 121 132 132 105 98 118 115 141 165 163 156 148 161 168 189 214 179 187 189 192 191 188 190 193 190 184 179 178 176 179 183 186 179 176 181 187 193 198 201 205 201 195 197 203 209 207 211 221 236 248 272 298 312
81 122 110 54 81 71 64 119 160 148 149 169 150 175 191 177 173 171 174 179 188 188 185 185 187 188 186 184 184 184 182 183 185 185 190 191 191 193 194 194 190 190 195 201 204 209 210 213 224 239 256 271 287 300
114 125 103 75 76 75 78 114 128 145 147 156 126 128 147 168 179 181 177 180 186 190 190 188 186 187 188 186 185 189 197 201 201 198 193 197 197 189 187 188 195 203 207 209 209 209 212 221 233 246 261 275 287 294
125 108 86 70 80 90 121 125 125 130 147 149 134 139 148 171 188 191 188 187 190 190 192 191 192 193 193 195 198 197 199 203 205 209 213 208 200 199 198 198 201 206 208 209 211 212 218 229 240 253 266 277 285 290
86 80 120 107 107 127 126 118 107 107 124 147 141 132 157 178 200 192 196 190 189 197 201 199 199 198 198 202 203 205 205 200 201 205 210 211 210 207 204 205 205 205 206 208 210 216 225 236 247 258 268 276 283 288
100 95 95 102 120 144 121 117 105 86 109 129 146 179 197 205 241 213 208 201 202 202 203 206 207 206 203 201 203 205 205 205 208 207 204 203 203 204 202 202 205 207 208 208 215 224 235 244 251 256 264 273 282 289